User: anonymous   Login
Location: Normandy Village
(37.8755°N, 122.2655°W)
Time: 02:01:46
(UTC+00:00)
Language:

COSMOS 2441 - Orbit

View from above orbital plane
View from above orbital plane
View from above satellite
View from above satellite

Ground track
Ground track

The orbit data is extracted from the following two-line orbital elements,

1 33272U 08037A   19321.46352039  .00000024  00000-0  16415-4 0  9990
2 33272  98.0146 293.0503 0016225 183.2863 176.8229 14.51814784599186
Epoch (UTC): 17 November 2019 11:07:28
Eccentricity: 0.0016225
inclination: 98.0146°
perigee height: 708 km
apogee height: 731 km
right ascension of ascending node: 293.0503°
argument of perigee: 183.2863°
revolutions per day: 14.51814784
mean anomaly at epoch: 176.8229°
orbit number at epoch: 59918

The dashed part of the orbit path shows where the satellite is in the earth's shadow,  

DLR